KO6TH-15 Weather Reports


time (UTC)temp
F
wind
direction
speed
knots
gust
knots
rain 1hr
in
rain 24hr
in
rain mn
in
humidity
%
barometer
mb
20260906020746 75 0 0.9 0.0 0.00 0.00 0.00 46
20260906015745 75 0 1.7 0.0 0.00 0.00 0.00 44
20260906014746 76 0 0.0 0.0 0.00 0.00 0.00 44
20260906013715 77 0 0.9 0.0 0.00 0.00 0.00 43
20260906012715 77 0 1.7 0.0 0.00 0.00 0.00 43
20260906011646 78 0 0.9 0.0 0.00 0.00 0.00 43
20260906010616 78 0 0.9 0.0 0.00 0.00 0.00 41
20260906005616 78 0 1.7 0.0 0.00 0.00 0.00 41
20260906004615 79 0 3.5 0.0 0.00 0.00 0.00 40
20260906003546 81 0 0.9 0.0 0.00 0.00 0.00 38
20260906002545 82 0 0.9 0.0 0.00 0.00 0.00 39
20260906001546 81 0 1.7 0.0 0.00 0.00 0.00 39
20260906000516 81 0 1.7 0.0 0.00 0.00 0.00 39
20260905235516 80 0 2.6 0.0 0.00 0.00 0.00 39
20260905234515 82 0 1.7 0.0 0.00 0.00 0.00 38
20260905233515 83 0 4.3 0.0 0.00 0.00 0.00 37
20260905232515 85 0 3.5 0.0 0.00 0.00 0.00 35
20260905231516 87 0 4.3 0.0 0.00 0.00 0.00 34
20260905230446 85 0 2.6 0.0 0.00 0.00 0.00 35
20260905225446 84 0 1.7 0.0 0.00 0.00 0.00 36
20260905224445 84 0 3.5 0.0 0.00 0.00 0.00 35
20260905223415 86 0 3.5 0.0 0.00 0.00 0.00 33
20260905222346 87 0 2.6 0.0 0.00 0.00 0.00 33
20260905221316 88 0 3.5 0.0 0.00 0.00 0.00 33
20260905220316 85 0 0.9 0.0 0.00 0.24 0.00 35
20260905215246 85 0 1.7 0.0 0.00 0.24 0.00 35
20260905214216 85 0 2.6 0.0 0.00 0.24 0.00 34
20260905213146 83 0 3.5 0.0 0.00 0.24 0.00 34
20260905212116 85 0 1.7 0.0 0.00 0.24 0.00 33
20260905211115 82 0 1.7 0.0 0.00 0.24 0.00 34
20260905210046 80 0 2.6 0.0 0.00 0.24 0.00 37
20260905205046 78 0 2.6 0.0 0.00 0.24 0.00 36
20260905204046 77 0 4.3 0.0 0.00 0.24 0.00 39
20260905203016 75 0 3.5 0.0 0.00 0.24 0.00 41
20260905202016 76 0 5.2 0.0 0.00 0.24 0.00 42
20260905201016 77 0 2.6 0.0 0.00 0.24 0.00 42
20260905200016 79 0 0.9 0.0 0.00 0.24 0.00 42
20260905194946 77 0 4.3 0.0 0.00 0.24 0.00 45
20260905193946 77 0 1.7 0.0 0.00 0.24 0.00 46
20260905192916 76 0 3.5 0.0 0.00 0.24 0.00 48
20260905191846 76 0 4.3 0.0 0.00 0.24 0.00 48
20260905190846 76 0 1.7 0.0 0.00 0.24 0.00 49
20260905185816 76 0 0.9 0.0 0.00 0.24 0.00 49
20260905184816 75 0 0.9 0.0 0.00 0.24 0.00 51
20260905183746 75 0 2.6 0.0 0.00 0.24 0.00 52
20260905182746 74 0 7.0 0.0 0.00 0.24 0.00 53
20260905181716 74 0 6.1 0.0 0.00 0.24 0.00 52
20260905180716 74 0 5.2 0.0 0.00 0.24 0.00 52
20260905175716 74 0 3.5 0.0 0.00 0.24 0.00 53
20260905174716 73 0 1.7 0.0 0.00 0.24 0.00 55
20260905173646 72 0 1.7 0.0 0.00 0.24 0.00 57
20260905172616 71 0 1.7 0.0 0.00 0.24 0.00 58
20260905171616 70 0 1.7 0.0 0.00 0.24 0.00 61
20260905170616 69 0 0.9 0.0 0.00 0.24 0.00 58
20260905165616 67 0 0.0 0.0 0.00 0.24 0.00 61
20260905164616 65 0 0.0 0.0 0.00 0.24 0.00 67
20260905163615 65 0 0.0 0.0 0.00 0.24 0.00 70
20260905162615 64 0 0.0 0.0 0.00 0.24 0.00 74
20260905161546 62 0 0.0 0.0 0.00 0.24 0.00 77
20260905160546 61 0 0.0 0.0 0.00 0.24 0.00 81
20260905155516 60 0 0.0 0.0 0.00 0.24 0.00 87
20260905154446 56 0 0.0 0.0 0.00 0.24 0.00 97
20260905153446 54 0 0.0 0.0 0.00 0.24 0.00 99
20260905152446 54 0 0.0 0.0 0.00 0.24 0.00 99
20260905151416 53 0 0.0 0.0 0.00 0.24 0.00 99
20260905150346 52 0 0.0 0.0 0.00 0.24 0.00 99
20260905145346 50 0 0.0 0.0 0.00 0.24 0.00 99
20260905144316 48 0 0.0 0.0 0.00 0.24 0.00 99
20260905143316 46 0 0.0 0.0 0.00 0.24 0.00 99
20260905142316 45 0 0.0 0.0 0.00 0.24 0.00 99
20260905141246 45 0 0.0 0.0 0.00 0.24 0.00 99
20260905140215 45 0 0.0 0.0 0.00 0.24 0.00 99
20260905135146 45 0 0.0 0.0 0.00 0.24 0.00 99
20260905134146 45 0 0.0 0.0 0.00 0.24 0.00 99
20260905133116 45 0 0.0 0.0 0.00 0.24 0.00 99
20260905132115 45 0 0.0 0.0 0.00 0.24 0.00 99
20260905131116 45 0 0.0 0.0 0.00 0.24 0.00 99
20260905130116 45 0 0.0 0.0 0.00 0.24 0.00 99
20260905125046 45 0 0.0 0.0 0.00 0.24 0.00 99
20260905124016 45 0 0.0 0.0 0.00 0.24 0.00 99
20260905123016 45 0 0.0 0.0 0.00 0.24 0.00 99
20260905122016 45 0 0.0 0.0 0.00 0.24 0.00 99
20260905121016 46 0 0.0 0.0 0.00 0.24 0.00 99
20260905120016 46 0 0.0 0.0 0.00 0.24 0.00 99
20260905114945 46 0 0.0 0.0 0.00 0.24 0.00 99
20260905113916 46 0 0.0 0.0 0.00 0.24 0.00 99
20260905112846 46 0 0.0 0.0 0.00 0.24 0.00 99
20260905111923 46 0 0.0 0.0 0.00 0.24 0.00 99
20260905111846 46 0 0.0 0.0 0.00 0.24 0.00 99
20260905110816 46 0 0.0 0.0 0.00 0.24 0.00 99
20260905105815 46 0 0.0 0.0 0.00 0.24 0.00 99
20260905104815 47 0 0.0 0.0 0.00 0.24 0.00 99
20260905103745 47 0 0.0 0.0 0.00 0.24 0.00 99
20260905102716 47 0 0.0 0.0 0.00 0.24 0.00 99
20260905101716 47 0 0.0 0.0 0.00 0.24 0.00 99
20260905100716 47 0 0.0 0.0 0.00 0.24 0.00 99
20260905095716 47 0 0.0 0.0 0.00 0.24 0.00 99
20260905094716 47 0 0.0 0.0 0.00 0.24 0.00 99
20260905093715 47 0 0.0 0.0 0.00 0.24 0.00 99
20260905092646 47 0 0.0 0.0 0.00 0.24 0.00 99
20260905091646 48 0 0.0 0.0 0.00 0.24 0.00 99
20260905090646 48 0 0.0 0.0 0.00 0.24 0.00 99
20260905085646 48 0 0.0 0.0 0.00 0.24 0.00 99
20260905084615 48 0 0.0 0.0 0.00 0.24 0.00 99
20260905083546 48 0 0.0 0.0 0.00 0.24 0.00 99
20260905082545 49 0 0.0 0.0 0.00 0.24 0.00 99
20260905081545 49 0 0.0 0.0 0.00 0.24 0.00 99
20260905080547 49 0 0.0 0.0 0.00 0.24 0.00 99
20260905080516 49 0 0.0 0.0 0.00 0.24 0.00 99
20260905075445 49 0 0.0 0.0 0.00 0.24 0.00 99
20260905074445 49 0 0.0 0.0 0.00 0.24 0.00 98
20260905073446 50 0 0.0 0.0 0.00 0.24 0.00 98
20260905072415 50 0 0.0 0.0 0.00 0.24 0.00 97
20260905071346 50 0 0.0 0.0 0.00 0.24 0.00 97
20260905070316 50 0 0.0 0.0 0.00 0.24 0.00 97
20260905065245 51 0 0.0 0.0 0.00 0.24 0.24 97
20260905064215 51 0 0.0 0.0 0.00 0.24 0.24 97
20260905063146 51 0 0.0 0.0 0.00 0.24 0.24 97
20260905062146 52 0 0.0 0.0 0.00 0.24 0.24 96
20260905061116 52 0 0.0 0.0 0.00 0.24 0.24 95
20260905060116 52 0 0.0 0.0 0.00 0.24 0.24 95
20260905055115 52 0 0.0 0.0 0.00 0.24 0.24 94
20260905054046 53 0 0.0 0.0 0.00 0.24 0.24 93
20260905053015 53 0 0.0 0.0 0.00 0.24 0.24 93
20260905052015 54 0 0.0 0.0 0.00 0.24 0.24 93
20260905050946 54 0 0.0 0.0 0.00 0.24 0.24 90
20260905045916 54 0 0.0 0.0 0.00 0.24 0.24 89
20260905044916 55 0 0.0 0.0 0.00 0.24 0.24 88
20260905043845 55 0 0.0 0.0 0.00 0.24 0.24 87
20260905042846 56 0 0.0 0.0 0.00 0.25 0.24 87
20260905041845 56 0 0.0 0.0 0.00 0.26 0.24 83
20260905040845 57 0 0.0 0.0 0.00 0.27 0.24 83
20260905035846 58 0 0.0 0.0 0.00 0.27 0.24 80
20260905034845 58 0 0.0 0.0 0.00 0.28 0.24 81
20260905033846 59 0 0.0 0.0 0.00 0.28 0.24 78
20260905032815 60 0 0.0 0.0 0.00 0.28 0.24 77
20260905031746 61 0 0.0 0.0 0.00 0.28 0.24 73
20260905030716 62 0 0.0 0.0 0.00 0.28 0.24 72
20260905025716 63 0 0.0 0.0 0.00 0.28 0.24 69
20260905024715 64 0 0.0 0.0 0.00 0.28 0.24 68
20260905023646 66 0 0.0 0.0 0.00 0.28 0.24 65
20260905022646 68 0 0.0 0.0 0.00 0.28 0.24 61
20260905021615 69 0 0.0 0.0 0.00 0.28 0.24 58